Location: Munkebjergskolens Observatorium
(55.3864°N, 10.3987°E)
Time: 04:18:31
(UTC+02:00)

KKS-1 - Pass Details

Date: 06 April 2023
Orbit: 633 x 644 km, 98.2° (Epoch: 31 May)

Event Time Altitude Azimuth Distance (km) Brightness Sun altitude
Rises 01:50:01 0° 7° (N) 2,946 ? -28.0°
Reaches altitude 10° 01:52:49 10° 348° (NNW) 2,033 ? -28.0°
Maximum altitude 01:55:44 18° 307° (NW) 1,581 ? -27.9°
Enters shadow 01:56:31 17° 293° (WNW) 1,617 ? -27.9°
